Time,TemperatureF,DewpointF,PressureIn,WindDirection,WindDirectionDegrees,WindSpeedMPH,WindSpeedGustMPH,Humidity,HourlyPrecipIn,Conditions,Clouds,dailyrainin,SoftwareType,DateUTC
2013-09-06 00:01:00,78.0,70.6,30.06,SSW,203,0.0,0.0,78,0.00,,,0.00,Wunderground v.1.15,2013-09-06 04:01:00,
2013-09-06 00:02:00,78.0,70.6,30.06,SSW,203,0.0,0.0,78,0.00,,,0.00,Wunderground v.1.15,2013-09-06 04:02:00,
2013-09-06 00:03:00,78.0,70.6,30.06,SSW,203,0.0,0.0,78,0.00,,,0.00,Wunderground v.1.15,2013-09-06 04:03:00,
2013-09-06 00:05:00,78.0,70.6,30.06,SSW,203,0.0,0.0,78,0.00,,,0.00,Wunderground v.1.15,2013-09-06 04:05:00,
2013-09-06 00:08:00,78.0,70.6,30.06,SSW,203,0.0,0.0,78,0.00,,,0.00,Wunderground v.1.15,2013-09-06 04:08:00,
2013-09-06 00:13:00,78.1,70.7,30.06,SSW,203,0.0,0.0,78,0.00,,,0.00,Wunderground v.1.15,2013-09-06 04:13:00,
2013-09-06 00:18:00,78.1,70.7,30.06,SSW,203,0.0,0.0,78,0.00,,,0.00,Wunderground v.1.15,2013-09-06 04:18:00,
2013-09-06 00:19:00,78.1,70.7,30.06,SSW,203,0.0,0.0,78,0.00,,,0.00,Wunderground v.1.15,2013-09-06 04:19:00,
2013-09-06 00:24:00,78.0,70.6,30.06,SSW,203,0.0,0.0,78,0.00,,,0.00,Wunderground v.1.15,2013-09-06 04:24:00,
2013-09-06 00:29:00,78.0,70.6,30.06,SSW,203,0.0,0.0,78,0.00,,,0.00,Wunderground v.1.15,2013-09-06 04:29:00,
2013-09-06 00:34:00,78.0,70.6,30.06,SSW,203,0.0,0.0,78,0.00,,,0.00,Wunderground v.1.15,2013-09-06 04:34:00,
2013-09-06 00:39:00,78.0,70.6,30.06,SSW,203,0.0,0.0,78,0.00,,,0.00,Wunderground v.1.15,2013-09-06 04:39:00,
2013-09-06 00:44:00,78.0,70.2,30.06,SSW,203,0.0,0.0,77,0.00,,,0.00,Wunderground v.1.15,2013-09-06 04:44:00,
2013-09-06 00:49:00,78.1,70.3,30.06,SSW,203,0.0,0.0,77,0.00,,,0.00,Wunderground v.1.15,2013-09-06 04:49:00,
2013-09-06 00:54:00,78.1,70.3,30.06,SSW,203,0.0,0.0,77,0.00,,,0.00,Wunderground v.1.15,2013-09-06 04:54:00,
2013-09-06 01:00:00,78.2,70.4,30.06,SSW,203,0.0,0.0,77,0.00,,,0.00,Wunderground v.1.15,2013-09-06 05:00:00,
2013-09-06 01:05:00,78.0,70.2,30.05,SSW,203,0.0,0.0,77,0.00,,,0.00,Wunderground v.1.15,2013-09-06 05:05:00,
2013-09-06 01:10:00,77.8,70.0,30.05,SSW,203,0.0,0.0,77,0.00,,,0.00,Wunderground v.1.15,2013-09-06 05:10:00,
2013-09-06 01:15:00,77.7,69.9,30.06,SSW,203,0.0,0.0,77,0.00,,,0.00,Wunderground v.1.15,2013-09-06 05:15:00,
2013-09-06 01:20:00,77.6,69.8,30.05,SSW,203,0.0,0.0,77,0.00,,,0.00,Wunderground v.1.15,2013-09-06 05:20:00,
2013-09-06 01:26:00,77.5,69.7,30.05,SSW,203,0.0,0.0,77,0.00,,,0.00,Wunderground v.1.15,2013-09-06 05:26:00,
2013-09-06 01:31:00,77.2,69.4,30.05,SSW,203,0.0,0.0,77,0.00,,,0.00,Wunderground v.1.15,2013-09-06 05:31:00,
2013-09-06 01:36:00,76.9,69.1,30.05,SSW,203,0.0,0.0,77,0.00,,,0.00,Wunderground v.1.15,2013-09-06 05:36:00,
2013-09-06 01:41:00,76.7,68.6,30.05,SSW,203,0.0,0.0,76,0.00,,,0.00,Wunderground v.1.15,2013-09-06 05:41:00,
2013-09-06 01:46:00,76.5,68.4,30.05,SSW,203,0.0,0.0,76,0.00,,,0.00,Wunderground v.1.15,2013-09-06 05:46:00,
2013-09-06 01:52:00,76.2,68.1,30.05,SSW,203,0.0,0.0,76,0.00,,,0.00,Wunderground v.1.15,2013-09-06 05:52:00,
2013-09-06 01:57:00,76.1,67.6,30.05,SSW,203,0.0,0.0,75,0.00,,,0.00,Wunderground v.1.15,2013-09-06 05:57:00,
2013-09-06 02:02:00,76.0,67.5,30.04,SSW,203,0.0,0.0,75,0.00,,,0.00,Wunderground v.1.15,2013-09-06 06:02:00,
2013-09-06 02:07:00,76.0,67.1,30.04,SSW,203,0.0,1.0,74,0.00,,,0.00,Wunderground v.1.15,2013-09-06 06:07:00,
2013-09-06 02:12:00,75.8,66.9,30.04,SSW,203,0.0,0.0,74,0.00,,,0.00,Wunderground v.1.15,2013-09-06 06:12:00,
2013-09-06 02:17:00,75.8,66.9,30.04,SSW,203,0.0,0.0,74,0.00,,,0.00,Wunderground v.1.15,2013-09-06 06:17:00,
2013-09-06 02:22:00,75.7,66.4,30.04,SSW,203,0.0,0.0,73,0.00,,,0.00,Wunderground v.1.15,2013-09-06 06:22:00,
2013-09-06 02:27:00,75.6,66.3,30.04,SSW,203,0.0,0.0,73,0.00,,,0.00,Wunderground v.1.15,2013-09-06 06:27:00,
2013-09-06 02:32:00,75.5,66.2,30.04,SSW,203,0.0,0.0,73,0.00,,,0.00,Wunderground v.1.15,2013-09-06 06:32:00,
2013-09-06 02:37:00,75.4,66.5,30.03,SSW,203,0.0,1.0,74,0.00,,,0.00,Wunderground v.1.15,2013-09-06 06:37:00,
2013-09-06 02:42:00,75.2,66.3,30.03,SSW,203,0.0,0.0,74,0.00,,,0.00,Wunderground v.1.15,2013-09-06 06:42:00,
2013-09-06 02:47:00,75.0,66.1,30.03,SSW,203,0.0,2.0,74,0.00,,,0.00,Wunderground v.1.15,2013-09-06 06:47:00,
2013-09-06 02:52:00,74.8,66.3,30.03,SSW,203,0.0,1.0,75,0.00,,,0.00,Wunderground v.1.15,2013-09-06 06:52:00,
2013-09-06 02:57:00,74.7,66.6,30.03,SSW,203,2.0,3.0,76,0.00,,,0.00,Wunderground v.1.15,2013-09-06 06:57:00,
2013-09-06 03:02:00,74.8,66.7,30.03,SSW,203,0.0,3.0,76,0.00,,,0.00,Wunderground v.1.15,2013-09-06 07:02:00,
2013-09-06 03:07:00,74.9,67.2,30.03,SSW,203,0.0,3.0,77,0.00,,,0.00,Wunderground v.1.15,2013-09-06 07:07:00,
2013-09-06 03:12:00,74.9,67.2,30.03,SSW,203,0.0,2.0,77,0.00,,,0.00,Wunderground v.1.15,2013-09-06 07:12:00,
2013-09-06 03:17:00,74.9,67.2,30.03,SSW,203,0.0,2.0,77,0.00,,,0.00,Wunderground v.1.15,2013-09-06 07:17:00,
2013-09-06 03:22:00,74.9,67.2,30.04,SSW,203,0.0,1.0,77,0.00,,,0.00,Wunderground v.1.15,2013-09-06 07:22:00,
2013-09-06 03:27:00,74.8,67.1,30.03,SSW,203,0.0,1.0,77,0.00,,,0.00,Wunderground v.1.15,2013-09-06 07:27:00,
2013-09-06 03:32:00,74.9,67.2,30.03,SSW,203,0.0,2.0,77,0.00,,,0.00,Wunderground v.1.15,2013-09-06 07:32:00,
2013-09-06 03:37:00,75.0,67.3,30.03,SSW,203,0.0,2.0,77,0.00,,,0.00,Wunderground v.1.15,2013-09-06 07:37:00,
2013-09-06 03:42:00,75.2,67.5,30.03,SSW,203,1.0,1.0,77,0.00,,,0.00,Wunderground v.1.15,2013-09-06 07:42:00,
2013-09-06 03:47:00,75.2,67.5,30.03,SSW,203,0.0,1.0,77,0.00,,,0.00,Wunderground v.1.15,2013-09-06 07:47:00,
2013-09-06 03:52:00,75.1,67.4,30.03,SSW,203,0.0,1.0,77,0.00,,,0.00,Wunderground v.1.15,2013-09-06 07:52:00,
2013-09-06 03:57:00,75.0,67.3,30.03,SSW,203,0.0,1.0,77,0.00,,,0.00,Wunderground v.1.15,2013-09-06 07:57:00,
2013-09-06 04:02:00,74.9,67.2,30.03,SSW,203,0.0,1.0,77,0.00,,,0.00,Wunderground v.1.15,2013-09-06 08:02:00,
2013-09-06 04:07:00,74.7,67.0,30.02,SSW,203,0.0,1.0,77,0.00,,,0.00,Wunderground v.1.15,2013-09-06 08:07:00,
2013-09-06 04:12:00,74.6,66.9,30.02,SSW,203,1.0,2.0,77,0.00,,,0.00,Wunderground v.1.15,2013-09-06 08:12:00,
2013-09-06 04:17:00,74.6,66.9,30.03,SSW,203,0.0,2.0,77,0.00,,,0.00,Wunderground v.1.15,2013-09-06 08:17:00,
2013-09-06 04:22:00,74.7,67.0,30.03,SSW,203,0.0,0.0,77,0.00,,,0.00,Wunderground v.1.15,2013-09-06 08:22:00,
2013-09-06 04:27:00,74.8,66.7,30.02,SSW,203,0.0,0.0,76,0.00,,,0.00,Wunderground v.1.15,2013-09-06 08:27:00,
2013-09-06 04:32:00,75.0,66.5,30.03,SSW,203,0.0,0.0,75,0.00,,,0.00,Wunderground v.1.15,2013-09-06 08:32:00,
2013-09-06 04:37:00,75.2,66.7,30.03,SSW,203,0.0,0.0,75,0.00,,,0.00,Wunderground v.1.15,2013-09-06 08:37:00,
2013-09-06 04:42:00,75.3,66.4,30.03,SSW,203,0.0,0.0,74,0.00,,,0.00,Wunderground v.1.15,2013-09-06 08:42:00,
2013-09-06 04:47:00,75.5,66.6,30.03,SSW,203,0.0,0.0,74,0.00,,,0.00,Wunderground v.1.15,2013-09-06 08:47:00,
2013-09-06 04:52:00,75.5,67.0,30.03,SSW,203,0.0,0.0,75,0.00,,,0.00,Wunderground v.1.15,2013-09-06 08:52:00,
2013-09-06 04:57:00,75.4,66.9,30.02,SSW,203,0.0,0.0,75,0.00,,,0.00,Wunderground v.1.15,2013-09-06 08:57:00,
2013-09-06 05:02:00,75.2,67.1,30.03,SSW,203,0.0,0.0,76,0.00,,,0.00,Wunderground v.1.15,2013-09-06 09:02:00,
2013-09-06 05:07:00,75.3,66.8,30.03,SSW,203,0.0,0.0,75,0.00,,,0.00,Wunderground v.1.15,2013-09-06 09:07:00,
2013-09-06 05:12:00,75.5,67.0,30.03,SSW,203,0.0,0.0,75,0.00,,,0.00,Wunderground v.1.15,2013-09-06 09:12:00,
2013-09-06 05:17:00,75.4,66.9,30.02,SSW,203,0.0,1.0,75,0.00,,,0.00,Wunderground v.1.15,2013-09-06 09:17:00,
2013-09-06 05:22:00,75.3,66.8,30.02,SSW,203,0.0,0.0,75,0.00,,,0.00,Wunderground v.1.15,2013-09-06 09:22:00,
2013-09-06 05:27:00,75.3,66.8,30.03,SSW,203,0.0,0.0,75,0.00,,,0.00,Wunderground v.1.15,2013-09-06 09:27:00,
2013-09-06 05:32:00,75.2,66.7,30.03,SSW,203,0.0,0.0,75,0.00,,,0.00,Wunderground v.1.15,2013-09-06 09:32:00,
2013-09-06 05:37:00,75.2,66.7,30.03,SSW,203,0.0,0.0,75,0.00,,,0.00,Wunderground v.1.15,2013-09-06 09:37:00,
2013-09-06 05:42:00,75.3,66.8,30.03,SSW,203,0.0,0.0,75,0.00,,,0.00,Wunderground v.1.15,2013-09-06 09:42:00,
2013-09-06 05:47:00,75.4,66.5,30.03,SSW,203,0.0,0.0,74,0.00,,,0.00,Wunderground v.1.15,2013-09-06 09:47:00,
2013-09-06 05:52:00,75.4,66.1,30.03,SSW,203,0.0,0.0,73,0.00,,,0.00,Wunderground v.1.15,2013-09-06 09:52:00,
2013-09-06 05:57:00,75.5,66.2,30.03,SSW,203,0.0,0.0,73,0.00,,,0.00,Wunderground v.1.15,2013-09-06 09:57:00,
2013-09-06 06:02:00,75.5,66.2,30.03,SSW,203,0.0,0.0,73,0.00,,,0.00,Wunderground v.1.15,2013-09-06 10:02:00,
2013-09-06 06:07:00,75.7,66.0,30.03,SSW,203,0.0,0.0,72,0.00,,,0.00,Wunderground v.1.15,2013-09-06 10:07:00,
2013-09-06 06:12:00,75.7,66.0,30.02,SSW,203,0.0,0.0,72,0.00,,,0.00,Wunderground v.1.15,2013-09-06 10:12:00,
2013-09-06 06:17:00,75.7,66.0,30.02,SSW,203,0.0,0.0,72,0.00,,,0.00,Wunderground v.1.15,2013-09-06 10:17:00,
2013-09-06 06:22:00,75.7,66.0,30.02,SSW,203,0.0,0.0,72,0.00,,,0.00,Wunderground v.1.15,2013-09-06 10:22:00,
2013-09-06 06:27:00,75.7,66.0,30.02,SSW,203,0.0,0.0,72,0.00,,,0.00,Wunderground v.1.15,2013-09-06 10:27:00,
2013-09-06 06:32:00,75.6,65.9,30.02,SSW,203,0.0,0.0,72,0.00,,,0.00,Wunderground v.1.15,2013-09-06 10:32:00,
2013-09-06 06:37:00,75.6,65.9,30.02,SSW,203,0.0,0.0,72,0.00,,,0.00,Wunderground v.1.15,2013-09-06 10:37:00,
2013-09-06 06:42:00,75.5,65.8,30.02,SSW,203,0.0,0.0,72,0.00,,,0.00,Wunderground v.1.15,2013-09-06 10:42:00,
2013-09-06 06:47:00,75.5,65.8,30.02,SSW,203,0.0,0.0,72,0.00,,,0.00,Wunderground v.1.15,2013-09-06 10:47:00,
2013-09-06 06:52:00,75.5,65.4,30.02,SSW,203,0.0,0.0,71,0.00,,,0.00,Wunderground v.1.15,2013-09-06 10:52:00,
2013-09-06 06:57:00,75.4,65.3,30.02,SSW,203,0.0,0.0,71,0.00,,,0.00,Wunderground v.1.15,2013-09-06 10:57:00,
2013-09-06 07:02:00,75.4,65.3,30.02,SSW,203,0.0,0.0,71,0.00,,,0.00,Wunderground v.1.15,2013-09-06 11:02:00,
2013-09-06 07:07:00,75.6,65.1,30.02,SSW,203,0.0,0.0,70,0.00,,,0.00,Wunderground v.1.15,2013-09-06 11:07:00,
2013-09-06 07:12:00,75.5,65.4,30.03,SSW,203,0.0,1.0,71,0.00,,,0.00,Wunderground v.1.15,2013-09-06 11:12:00,
2013-09-06 07:17:00,75.3,65.6,30.03,SSW,202,0.0,1.0,72,0.00,,,0.00,Wunderground v.1.15,2013-09-06 11:17:00,
2013-09-06 07:22:00,75.1,65.1,30.03,SSW,202,0.0,0.0,71,0.00,,,0.00,Wunderground v.1.15,2013-09-06 11:22:00,
2013-09-06 07:27:00,75.0,65.0,30.03,SSW,202,0.0,0.0,71,0.00,,,0.00,Wunderground v.1.15,2013-09-06 11:27:00,
2013-09-06 07:32:00,75.0,65.0,30.03,SSW,202,0.0,0.0,71,0.00,,,0.00,Wunderground v.1.15,2013-09-06 11:32:00,
2013-09-06 07:37:00,74.9,64.9,30.04,SSW,202,0.0,0.0,71,0.00,,,0.00,Wunderground v.1.15,2013-09-06 11:37:00,
2013-09-06 07:42:00,75.0,64.5,30.04,SSW,202,0.0,0.0,70,0.00,,,0.00,Wunderground v.1.15,2013-09-06 11:42:00,
2013-09-06 07:47:00,75.3,64.4,30.04,SSW,202,0.0,0.0,69,0.00,,,0.00,Wunderground v.1.15,2013-09-06 11:47:00,
2013-09-06 07:52:00,75.7,64.4,30.04,SSW,202,0.0,0.0,68,0.00,,,0.00,Wunderground v.1.15,2013-09-06 11:52:00,
2013-09-06 07:57:00,75.9,64.6,30.04,SSW,202,0.0,0.0,68,0.00,,,0.00,Wunderground v.1.15,2013-09-06 11:57:00,
2013-09-06 08:02:00,76.2,65.3,30.04,SSW,202,0.0,0.0,69,0.00,,,0.00,Wunderground v.1.15,2013-09-06 12:02:00,
2013-09-06 08:07:00,76.7,65.8,30.04,SSW,202,0.0,0.0,69,0.00,,,0.00,Wunderground v.1.15,2013-09-06 12:07:00,
2013-09-06 08:12:00,77.3,66.3,30.04,SSW,202,0.0,0.0,69,0.00,,,0.00,Wunderground v.1.15,2013-09-06 12:12:00,
2013-09-06 08:17:00,77.9,66.9,30.04,SSW,202,0.0,0.0,69,0.00,,,0.00,Wunderground v.1.15,2013-09-06 12:17:00,
2013-09-06 08:22:00,78.4,67.8,30.04,SSW,202,0.0,0.0,70,0.00,,,0.00,Wunderground v.1.15,2013-09-06 12:22:00,
2013-09-06 08:27:00,78.7,68.5,30.04,SSW,202,0.0,0.0,71,0.00,,,0.00,Wunderground v.1.15,2013-09-06 12:27:00,
2013-09-06 08:32:00,79.0,68.8,30.04,SSW,202,0.0,0.0,71,0.00,,,0.00,Wunderground v.1.15,2013-09-06 12:32:00,
2013-09-06 08:37:00,79.3,69.1,30.05,SSW,202,0.0,0.0,71,0.00,,,0.00,Wunderground v.1.15,2013-09-06 12:37:00,
2013-09-06 08:42:00,79.5,69.3,30.04,SSW,202,0.0,0.0,71,0.00,,,0.00,Wunderground v.1.15,2013-09-06 12:42:00,
2013-09-06 08:47:00,79.6,69.4,30.04,SSW,202,0.0,0.0,71,0.00,,,0.00,Wunderground v.1.15,2013-09-06 12:47:00,
2013-09-06 08:52:00,80.0,69.7,30.04,SSW,202,0.0,0.0,71,0.00,,,0.00,Wunderground v.1.15,2013-09-06 12:52:00,
2013-09-06 08:57:00,80.3,70.4,30.04,SSW,202,0.0,0.0,72,0.00,,,0.00,Wunderground v.1.15,2013-09-06 12:57:00,
2013-09-06 09:02:00,80.5,70.6,30.04,SSW,202,0.0,0.0,72,0.00,,,0.00,Wunderground v.1.15,2013-09-06 13:02:00,
2013-09-06 09:07:00,80.8,70.9,30.05,SSW,202,0.0,0.0,72,0.00,,,0.00,Wunderground v.1.15,2013-09-06 13:07:00,
2013-09-06 09:12:00,81.1,71.2,30.05,SSW,202,0.0,0.0,72,0.00,,,0.00,Wunderground v.1.15,2013-09-06 13:12:00,
2013-09-06 09:17:00,81.2,71.7,30.05,SSW,202,0.0,0.0,73,0.00,,,0.00,Wunderground v.1.15,2013-09-06 13:17:00,
2013-09-06 09:22:00,81.4,72.3,30.05,SSW,202,0.0,1.0,74,0.00,,,0.00,Wunderground v.1.15,2013-09-06 13:22:00,
2013-09-06 09:27:00,81.6,72.9,30.05,SSW,202,0.0,1.0,75,0.00,,,0.00,Wunderground v.1.15,2013-09-06 13:27:00,
2013-09-06 09:32:00,81.9,73.2,30.05,SSW,202,0.0,0.0,75,0.00,,,0.00,Wunderground v.1.15,2013-09-06 13:32:00,
2013-09-06 09:37:00,82.2,73.5,30.05,SSW,202,0.0,0.0,75,0.00,,,0.00,Wunderground v.1.15,2013-09-06 13:37:00,
2013-09-06 09:42:00,82.4,74.1,30.05,SSW,202,0.0,0.0,76,0.00,,,0.00,Wunderground v.1.15,2013-09-06 13:42:00,
2013-09-06 09:47:00,82.8,74.5,30.05,SSW,202,0.0,1.0,76,0.00,,,0.00,Wunderground v.1.15,2013-09-06 13:47:00,
2013-09-06 09:52:00,82.8,74.5,30.05,SSW,202,0.0,1.0,76,0.00,,,0.00,Wunderground v.1.15,2013-09-06 13:52:00,
2013-09-06 09:57:00,83.0,74.6,30.05,SSW,202,0.0,1.0,76,0.00,,,0.00,Wunderground v.1.15,2013-09-06 13:57:00,
2013-09-06 10:02:00,83.3,75.3,30.05,SSW,202,0.0,0.0,77,0.00,,,0.00,Wunderground v.1.15,2013-09-06 14:02:00,
2013-09-06 10:07:00,83.4,75.4,30.05,SSW,202,0.0,0.0,77,0.00,,,0.00,Wunderground v.1.15,2013-09-06 14:07:00,
2013-09-06 10:12:00,83.3,74.9,30.05,SSW,202,0.0,1.0,76,0.00,,,0.00,Wunderground v.1.15,2013-09-06 14:12:00,
2013-09-06 10:17:00,83.3,75.3,30.05,SSW,202,0.0,2.0,77,0.00,,,0.00,Wunderground v.1.15,2013-09-06 14:17:00,
2013-09-06 10:22:00,83.5,75.1,30.06,SSW,202,0.0,0.0,76,0.00,,,0.00,Wunderground v.1.15,2013-09-06 14:22:00,
2013-09-06 10:27:00,83.6,75.2,30.06,SSW,202,0.0,2.0,76,0.00,,,0.00,Wunderground v.1.15,2013-09-06 14:27:00,
2013-09-06 10:32:00,83.9,75.5,30.06,SSW,202,0.0,2.0,76,0.00,,,0.00,Wunderground v.1.15,2013-09-06 14:32:00,
2013-09-06 10:37:00,84.0,75.6,30.06,SSW,202,0.0,2.0,76,0.00,,,0.00,Wunderground v.1.15,2013-09-06 14:37:00,
2013-09-06 10:42:00,84.4,76.0,30.06,SSW,202,0.0,1.0,76,0.00,,,0.00,Wunderground v.1.15,2013-09-06 14:42:00,
2013-09-06 10:47:00,84.7,75.5,30.06,SSW,202,0.0,2.0,74,0.00,,,0.00,Wunderground v.1.15,2013-09-06 14:47:00,
2013-09-06 10:52:00,85.0,76.2,30.06,SSW,202,0.0,2.0,75,0.00,,,0.00,Wunderground v.1.15,2013-09-06 14:52:00,
2013-09-06 10:57:00,85.1,76.3,30.05,SSW,202,0.0,2.0,75,0.00,,,0.00,Wunderground v.1.15,2013-09-06 14:57:00,
2013-09-06 11:02:00,85.0,76.2,30.06,SSW,202,0.0,0.0,75,0.00,,,0.00,Wunderground v.1.15,2013-09-06 15:02:00,
2013-09-06 11:07:00,85.3,76.1,30.06,SSW,202,0.0,0.0,74,0.00,,,0.00,Wunderground v.1.15,2013-09-06 15:07:00,
2013-09-06 11:12:00,85.5,76.7,30.06,SSW,202,0.0,3.0,75,0.00,,,0.00,Wunderground v.1.15,2013-09-06 15:12:00,
2013-09-06 11:17:00,85.7,76.9,30.06,SSW,202,0.0,3.0,75,0.00,,,0.00,Wunderground v.1.15,2013-09-06 15:17:00,
2013-09-06 11:22:00,85.8,76.5,30.05,SSW,202,1.0,3.0,74,0.00,,,0.00,Wunderground v.1.15,2013-09-06 15:22:00,
2013-09-06 11:27:00,86.1,77.2,30.05,SSW,202,3.0,4.0,75,0.00,,,0.00,Wunderground v.1.15,2013-09-06 15:27:00,
2013-09-06 11:32:00,86.0,76.7,30.05,SSW,202,0.0,4.0,74,0.00,,,0.00,Wunderground v.1.15,2013-09-06 15:32:00,
2013-09-06 11:37:00,85.5,76.3,30.05,SSW,202,0.0,4.0,74,0.00,,,0.00,Wunderground v.1.15,2013-09-06 15:37:00,
2013-09-06 11:42:00,85.2,76.4,30.06,SSW,202,0.0,1.0,75,0.00,,,0.00,Wunderground v.1.15,2013-09-06 15:42:00,
2013-09-06 11:47:00,85.0,76.2,30.05,SSW,202,0.0,1.0,75,0.00,,,0.00,Wunderground v.1.15,2013-09-06 15:47:00,
2013-09-06 11:52:00,85.0,76.6,30.05,SSW,202,1.0,3.0,76,0.00,,,0.00,Wunderground v.1.15,2013-09-06 15:52:00,
2013-09-06 11:57:00,84.5,76.1,30.05,ENE,61,4.0,4.0,76,0.00,,,0.00,Wunderground v.1.15,2013-09-06 15:57:00,
2013-09-06 12:02:00,83.5,75.1,30.05,ENE,59,1.0,3.0,76,0.00,,,0.00,Wunderground v.1.15,2013-09-06 16:02:00,
2013-09-06 12:07:00,83.1,74.7,30.05,ENE,59,0.0,3.0,76,0.00,,,0.00,Wunderground v.1.15,2013-09-06 16:07:00,
2013-09-06 12:12:00,83.2,75.2,30.04,ENE,59,1.0,2.0,77,0.00,,,0.00,Wunderground v.1.15,2013-09-06 16:12:00,
2013-09-06 12:17:00,83.8,75.4,30.04,ENE,59,0.0,3.0,76,0.00,,,0.00,Wunderground v.1.15,2013-09-06 16:17:00,
2013-09-06 12:22:00,84.8,76.4,30.04,ENE,59,0.0,3.0,76,0.00,,,0.00,Wunderground v.1.15,2013-09-06 16:22:00,
2013-09-06 12:27:00,85.9,77.1,30.04,ENE,59,2.0,3.0,75,0.00,,,0.00,Wunderground v.1.15,2013-09-06 16:27:00,
2013-09-06 12:32:00,87.1,78.2,30.03,ENE,59,0.0,0.0,75,0.00,,,0.00,Wunderground v.1.15,2013-09-06 16:32:00,
2013-09-06 12:37:00,88.4,78.6,30.03,ENE,59,0.0,1.0,73,0.00,,,0.00,Wunderground v.1.15,2013-09-06 16:37:00,
2013-09-06 12:42:00,89.3,77.3,30.03,ENE,59,0.0,2.0,68,0.00,,,0.00,Wunderground v.1.15,2013-09-06 16:42:00,
2013-09-06 12:47:00,89.9,77.9,30.03,ENE,59,0.0,2.0,68,0.00,,,0.00,Wunderground v.1.15,2013-09-06 16:47:00,
2013-09-06 12:52:00,89.9,77.9,30.03,ENE,59,2.0,4.0,68,0.00,,,0.00,Wunderground v.1.15,2013-09-06 16:52:00,
2013-09-06 12:57:00,89.3,77.8,30.02,WSW,242,2.0,4.0,69,0.00,,,0.00,Wunderground v.1.15,2013-09-06 16:57:00,
2013-09-06 13:02:00,89.0,76.2,30.02,WSW,245,1.0,3.0,66,0.00,,,0.00,Wunderground v.1.15,2013-09-06 17:02:00,
2013-09-06 13:07:00,88.9,76.5,30.02,WSW,244,3.0,3.0,67,0.00,,,0.00,Wunderground v.1.15,2013-09-06 17:07:00,
2013-09-06 13:12:00,89.0,76.2,30.02,WSW,244,4.0,4.0,66,0.00,,,0.00,Wunderground v.1.15,2013-09-06 17:12:00,
2013-09-06 13:17:00,88.5,76.1,30.02,WSW,244,4.0,5.0,67,0.00,,,0.00,Wunderground v.1.15,2013-09-06 17:17:00,
2013-09-06 13:22:00,88.6,76.2,30.02,WSW,244,2.0,3.0,67,0.00,,,0.00,Wunderground v.1.15,2013-09-06 17:22:00,
2013-09-06 13:27:00,88.7,76.3,30.01,WSW,244,1.0,3.0,67,0.00,,,0.00,Wunderground v.1.15,2013-09-06 17:27:00,
2013-09-06 13:32:00,88.8,76.4,30.01,WSW,244,2.0,4.0,67,0.00,,,0.00,Wunderground v.1.15,2013-09-06 17:32:00,
2013-09-06 13:37:00,89.3,76.4,30.01,WSW,244,2.0,4.0,66,0.00,,,0.00,Wunderground v.1.15,2013-09-06 17:37:00,
2013-09-06 13:42:00,89.5,76.6,30.01,WSW,244,2.0,5.0,66,0.00,,,0.00,Wunderground v.1.15,2013-09-06 17:42:00,
2013-09-06 13:47:00,90.0,77.1,30.00,WSW,244,2.0,5.0,66,0.00,,,0.00,Wunderground v.1.15,2013-09-06 17:47:00,
2013-09-06 13:52:00,90.0,77.1,30.00,WSW,244,0.0,3.0,66,0.00,,,0.00,Wunderground v.1.15,2013-09-06 17:52:00,
2013-09-06 13:57:00,90.1,76.7,30.00,WSW,244,3.0,4.0,65,0.00,,,0.00,Wunderground v.1.15,2013-09-06 17:57:00,
2013-09-06 14:02:00,90.0,77.6,29.99,WSW,247,4.0,4.0,67,0.00,,,0.00,Wunderground v.1.15,2013-09-06 18:02:00,
2013-09-06 14:07:00,90.2,76.8,29.99,WSW,247,1.0,4.0,65,0.00,,,0.00,Wunderground v.1.15,2013-09-06 18:07:00,
2013-09-06 14:12:00,90.5,76.2,29.99,WSW,247,1.0,1.0,63,0.00,,,0.00,Wunderground v.1.15,2013-09-06 18:12:00,
2013-09-06 14:17:00,91.2,74.9,29.99,WSW,247,0.0,3.0,59,0.00,,,0.00,Wunderground v.1.15,2013-09-06 18:17:00,
2013-09-06 14:22:00,91.0,77.1,29.98,WSW,247,1.0,1.0,64,0.00,,,0.00,Wunderground v.1.15,2013-09-06 18:22:00,
2013-09-06 14:27:00,90.6,76.7,29.98,WSW,247,1.0,2.0,64,0.00,,,0.00,Wunderground v.1.15,2013-09-06 18:27:00,
2013-09-06 14:32:00,89.8,78.7,29.98,SW,218,0.0,1.0,70,0.00,,,0.00,Wunderground v.1.15,2013-09-06 18:32:00,
2013-09-06 14:37:00,88.7,78.1,29.98,NNW,329,0.0,1.0,71,0.00,,,0.00,Wunderground v.1.15,2013-09-06 18:37:00,
2013-09-06 14:42:00,87.5,76.9,29.97,NW,320,2.0,2.0,71,0.00,,,0.00,Wunderground v.1.15,2013-09-06 18:42:00,
2013-09-06 14:47:00,85.6,77.2,29.97,WSW,239,3.0,5.0,76,0.00,,,0.00,Wunderground v.1.15,2013-09-06 18:47:00,
2013-09-06 14:52:00,82.8,74.5,29.98,WSW,243,5.0,9.0,76,0.00,,,0.00,Wunderground v.1.15,2013-09-06 18:52:00,
2013-09-06 14:57:00,81.1,73.2,29.99,WSW,238,5.0,9.0,77,0.00,,,0.00,Wunderground v.1.15,2013-09-06 18:57:00,
2013-09-06 15:02:00,80.9,73.0,29.99,WSW,243,3.0,9.0,77,0.00,,,0.00,Wunderground v.1.15,2013-09-06 19:02:00,
2013-09-06 15:07:00,80.4,72.1,30.02,ENE,67,5.0,13.0,76,0.00,,,0.00,Wunderground v.1.15,2013-09-06 19:07:00,
2013-09-06 15:12:00,79.4,70.8,30.01,East,82,5.0,14.0,75,0.00,,,0.00,Wunderground v.1.15,2013-09-06 19:12:00,
2013-09-06 15:17:00,77.4,69.6,30.00,ENE,69,17.0,18.0,77,0.00,,,0.00,Wunderground v.1.15,2013-09-06 19:17:00,
2013-09-06 15:22:00,75.1,67.8,30.00,NE,54,6.0,12.0,78,0.00,,,0.00,Wunderground v.1.15,2013-09-06 19:22:00,
2013-09-06 15:27:00,74.3,66.6,30.00,ENE,61,0.0,13.0,77,0.00,,,0.00,Wunderground v.1.15,2013-09-06 19:27:00,
2013-09-06 15:32:00,74.0,66.0,30.00,ENE,64,4.0,9.0,76,0.00,,,0.00,Wunderground v.1.15,2013-09-06 19:32:00,
2013-09-06 15:37:00,73.8,65.0,29.99,ESE,105,4.0,14.0,74,0.00,,,0.00,Wunderground v.1.15,2013-09-06 19:37:00,
2013-09-06 15:42:00,73.8,64.6,29.98,ENE,57,10.0,11.0,73,0.00,,,0.00,Wunderground v.1.15,2013-09-06 19:42:00,
2013-09-06 15:47:00,73.5,64.3,29.98,East,101,1.0,15.0,73,0.00,,,0.00,Wunderground v.1.15,2013-09-06 19:47:00,
2013-09-06 15:52:00,73.5,64.3,29.99,ENE,76,2.0,9.0,73,0.00,,,0.00,Wunderground v.1.15,2013-09-06 19:52:00,
2013-09-06 15:57:00,73.6,64.0,30.00,ENE,61,0.0,9.0,72,0.00,,,0.00,Wunderground v.1.15,2013-09-06 19:57:00,
2013-09-06 16:02:00,73.7,64.1,30.00,ENE,69,2.0,9.0,72,0.00,,,0.00,Wunderground v.1.15,2013-09-06 20:02:00,
2013-09-06 16:07:00,73.8,63.8,30.00,NE,38,0.0,9.0,71,0.00,,,0.00,Wunderground v.1.15,2013-09-06 20:07:00,
2013-09-06 16:12:00,74.0,64.0,30.01,NNE,23,0.0,1.0,71,0.00,,,0.00,Wunderground v.1.15,2013-09-06 20:12:00,
2013-09-06 16:17:00,74.0,63.6,30.02,NNE,23,0.0,2.0,70,0.00,,,0.00,Wunderground v.1.15,2013-09-06 20:17:00,
2013-09-06 16:22:00,74.0,63.6,30.02,ENE,72,2.0,4.0,70,0.00,,,0.00,Wunderground v.1.15,2013-09-06 20:22:00,
2013-09-06 16:27:00,74.0,63.6,30.02,NNW,346,0.0,5.0,70,0.00,,,0.00,Wunderground v.1.15,2013-09-06 20:27:00,
2013-09-06 16:32:00,73.9,63.1,30.01,NE,42,0.0,1.0,69,0.00,,,0.00,Wunderground v.1.15,2013-09-06 20:32:00,
2013-09-06 16:37:00,73.7,63.3,30.02,NE,43,0.0,4.0,70,0.00,,,0.00,Wunderground v.1.15,2013-09-06 20:37:00,
2013-09-06 16:42:00,73.3,63.3,30.02,NE,44,0.0,1.0,71,0.00,,,0.00,Wunderground v.1.15,2013-09-06 20:42:00,
2013-09-06 16:47:00,73.1,62.7,30.02,NE,44,0.0,1.0,70,0.00,,,0.00,Wunderground v.1.15,2013-09-06 20:47:00,
2013-09-06 16:52:00,73.2,62.4,30.03,NE,44,0.0,0.0,69,0.00,,,0.00,Wunderground v.1.15,2013-09-06 20:52:00,
2013-09-06 16:57:00,73.1,62.3,30.02,NE,44,0.0,0.0,69,0.00,,,0.00,Wunderground v.1.15,2013-09-06 20:57:00,
2013-09-06 17:02:00,73.1,62.3,30.02,NE,44,0.0,0.0,69,0.00,,,0.00,Wunderground v.1.15,2013-09-06 21:02:00,
2013-09-06 17:07:00,73.3,62.1,30.01,NE,44,0.0,0.0,68,0.00,,,0.00,Wunderground v.1.15,2013-09-06 21:07:00,
2013-09-06 17:12:00,73.4,62.2,30.01,NE,44,0.0,0.0,68,0.00,,,0.00,Wunderground v.1.15,2013-09-06 21:12:00,
2013-09-06 17:17:00,73.4,62.2,30.01,NE,44,0.0,3.0,68,0.00,,,0.00,Wunderground v.1.15,2013-09-06 21:17:00,
2013-09-06 17:22:00,73.3,62.1,30.01,East,79,0.0,2.0,68,0.00,,,0.00,Wunderground v.1.15,2013-09-06 21:22:00,
2013-09-06 17:27:00,73.3,62.1,30.00,East,79,0.0,2.0,68,0.00,,,0.00,Wunderground v.1.15,2013-09-06 21:27:00,
2013-09-06 17:33:00,73.2,62.0,30.00,East,99,1.0,3.0,68,0.00,,,0.00,Wunderground v.1.15,2013-09-06 21:33:00,
2013-09-06 17:38:00,73.1,61.9,30.01,East,82,0.0,3.0,68,0.00,,,0.00,Wunderground v.1.15,2013-09-06 21:38:00,
2013-09-06 17:43:00,73.2,62.0,30.01,East,82,0.0,3.0,68,0.00,,,0.00,Wunderground v.1.15,2013-09-06 21:43:00,
2013-09-06 17:48:00,73.2,62.0,30.01,NE,53,1.0,4.0,68,0.00,,,0.00,Wunderground v.1.15,2013-09-06 21:48:00,
2013-09-06 17:53:00,73.1,61.9,30.01,NE,53,0.0,3.0,68,0.00,,,0.00,Wunderground v.1.15,2013-09-06 21:53:00,
2013-09-06 17:58:00,73.1,61.9,30.01,ENE,57,0.0,4.0,68,0.00,,,0.00,Wunderground v.1.15,2013-09-06 21:58:00,
2013-09-06 18:03:00,73.1,61.5,30.01,ENE,57,0.0,3.0,67,0.00,,,0.00,Wunderground v.1.15,2013-09-06 22:03:00,
2013-09-06 18:08:00,73.2,61.6,30.01,ENE,57,0.0,3.0,67,0.00,,,0.00,Wunderground v.1.15,2013-09-06 22:08:00,
2013-09-06 18:13:00,73.2,61.6,30.01,ENE,57,0.0,0.0,67,0.00,,,0.00,Wunderground v.1.15,2013-09-06 22:13:00,
2013-09-06 18:18:00,73.3,61.7,30.02,ENE,57,0.0,0.0,67,0.00,,,0.00,Wunderground v.1.15,2013-09-06 22:18:00,
2013-09-06 18:23:00,73.4,61.8,30.01,ENE,57,0.0,0.0,67,0.00,,,0.00,Wunderground v.1.15,2013-09-06 22:23:00,
2013-09-06 18:28:00,73.2,61.6,30.01,ENE,57,0.0,1.0,67,0.00,,,0.00,Wunderground v.1.15,2013-09-06 22:28:00,
2013-09-06 18:33:00,73.3,61.7,30.01,ENE,57,0.0,1.0,67,0.00,,,0.00,Wunderground v.1.15,2013-09-06 22:33:00,
2013-09-06 18:38:00,73.3,61.7,30.01,ENE,57,0.0,3.0,67,0.00,,,0.00,Wunderground v.1.15,2013-09-06 22:38:00,
2013-09-06 18:43:00,73.3,61.7,30.01,ENE,57,0.0,1.0,67,0.00,,,0.00,Wunderground v.1.15,2013-09-06 22:43:00,
2013-09-06 18:48:00,73.6,61.5,30.02,ENE,57,0.0,1.0,66,0.00,,,0.00,Wunderground v.1.15,2013-09-06 22:48:00,
2013-09-06 18:53:00,73.5,61.9,30.02,WNW,290,0.0,4.0,67,0.00,,,0.00,Wunderground v.1.15,2013-09-06 22:53:00,
2013-09-06 18:58:00,73.4,61.8,30.02,WNW,287,2.0,4.0,67,0.00,,,0.00,Wunderground v.1.15,2013-09-06 22:58:00,
2013-09-06 19:03:00,73.3,61.7,30.02,WNW,287,0.0,0.0,67,0.00,,,0.00,Wunderground v.1.15,2013-09-06 23:03:00,
2013-09-06 19:08:00,73.2,61.6,30.02,WNW,287,0.0,1.0,67,0.00,,,0.00,Wunderground v.1.15,2013-09-06 23:08:00,
2013-09-06 19:13:00,73.1,61.5,30.02,NNW,329,0.0,1.0,67,0.00,,,0.00,Wunderground v.1.15,2013-09-06 23:13:00,
2013-09-06 19:18:00,73.1,61.5,30.03,NNW,329,0.0,1.0,67,0.00,,,0.00,Wunderground v.1.15,2013-09-06 23:18:00,
2013-09-06 19:23:00,73.0,61.4,30.04,NNW,329,0.0,0.0,67,0.00,,,0.00,Wunderground v.1.15,2013-09-06 23:23:00,
2013-09-06 19:28:00,73.0,61.4,30.03,WNW,286,0.0,3.0,67,0.00,,,0.00,Wunderground v.1.15,2013-09-06 23:28:00,
2013-09-06 19:33:00,72.8,61.2,30.03,WNW,286,0.0,2.0,67,0.00,,,0.00,Wunderground v.1.15,2013-09-06 23:33:00,
2013-09-06 19:38:00,72.8,61.2,30.04,WNW,286,0.0,2.0,67,0.00,,,0.00,Wunderground v.1.15,2013-09-06 23:38:00,
2013-09-06 19:43:00,72.8,61.2,30.04,WNW,286,0.0,0.0,67,0.00,,,0.00,Wunderground v.1.15,2013-09-06 23:43:00,
2013-09-06 19:48:00,72.8,61.2,30.04,WNW,286,0.0,1.0,67,0.00,,,0.00,Wunderground v.1.15,2013-09-06 23:48:00,
2013-09-06 19:53:00,72.6,61.0,30.04,NW,306,0.0,2.0,67,0.00,,,0.00,Wunderground v.1.15,2013-09-06 23:53:00,
2013-09-06 19:58:00,72.6,61.0,30.03,NW,306,0.0,2.0,67,0.00,,,0.00,Wunderground v.1.15,2013-09-06 23:58:00,
2013-09-06 20:03:00,72.5,60.9,30.03,NW,306,0.0,0.0,67,0.00,,,0.00,Wunderground v.1.15,2013-09-07 00:03:00,
2013-09-06 20:08:00,72.5,60.9,30.03,NW,306,0.0,1.0,67,0.00,,,0.00,Wunderground v.1.15,2013-09-07 00:08:00,
2013-09-06 20:13:00,72.4,60.8,30.03,NW,306,0.0,2.0,67,0.00,,,0.00,Wunderground v.1.15,2013-09-07 00:13:00,
2013-09-06 20:18:00,72.4,60.8,30.02,NW,306,0.0,2.0,67,0.00,,,0.00,Wunderground v.1.15,2013-09-07 00:18:00,
2013-09-06 20:23:00,72.4,60.8,30.02,NW,306,0.0,0.0,67,0.00,,,0.00,Wunderground v.1.15,2013-09-07 00:23:00,
2013-09-06 20:28:00,72.2,60.6,30.02,NW,306,0.0,1.0,67,0.00,,,0.00,Wunderground v.1.15,2013-09-07 00:28:00,
2013-09-06 20:33:00,72.2,60.6,30.01,NW,306,0.0,0.0,67,0.00,,,0.00,Wunderground v.1.15,2013-09-07 00:33:00,
2013-09-06 20:38:00,72.4,60.8,30.01,WNW,292,1.0,3.0,67,0.00,,,0.00,Wunderground v.1.15,2013-09-07 00:38:00,
2013-09-06 20:43:00,72.4,60.8,30.00,WNW,292,1.0,2.0,67,0.00,,,0.00,Wunderground v.1.15,2013-09-07 00:43:00,
2013-09-06 20:48:00,72.7,60.7,30.00,WNW,292,0.0,3.0,66,0.00,,,0.00,Wunderground v.1.15,2013-09-07 00:48:00,
2013-09-06 20:53:00,72.9,60.9,29.99,West,277,1.0,2.0,66,0.00,,,0.00,Wunderground v.1.15,2013-09-07 00:53:00,
2013-09-06 20:58:00,72.7,60.7,30.00,West,277,0.0,2.0,66,0.00,,,0.00,Wunderground v.1.15,2013-09-07 00:58:00,
2013-09-06 21:03:00,72.6,60.6,30.00,West,277,0.0,0.0,66,0.00,,,0.00,Wunderground v.1.15,2013-09-07 01:03:00,
2013-09-06 21:08:00,72.4,60.8,29.99,West,277,0.0,1.0,67,0.00,,,0.00,Wunderground v.1.15,2013-09-07 01:08:00,
2013-09-06 21:13:00,72.3,60.7,29.99,West,277,0.0,0.0,67,0.00,,,0.00,Wunderground v.1.15,2013-09-07 01:13:00,
2013-09-06 21:18:00,72.2,60.6,29.99,West,277,0.0,1.0,67,0.00,,,0.00,Wunderground v.1.15,2013-09-07 01:18:00,
2013-09-06 21:23:00,72.1,60.5,29.99,West,277,0.0,1.0,67,0.00,,,0.00,Wunderground v.1.15,2013-09-07 01:23:00,
2013-09-06 21:28:00,72.0,60.4,29.98,West,277,0.0,1.0,67,0.00,,,0.00,Wunderground v.1.15,2013-09-07 01:28:00,
2013-09-06 21:33:00,72.0,60.4,29.98,West,277,0.0,0.0,67,0.00,,,0.00,Wunderground v.1.15,2013-09-07 01:33:00,
2013-09-06 21:38:00,72.0,60.4,29.98,West,277,0.0,0.0,67,0.00,,,0.00,Wunderground v.1.15,2013-09-07 01:38:00,
2013-09-06 21:43:00,71.8,60.2,29.98,West,277,0.0,1.0,67,0.00,,,0.00,Wunderground v.1.15,2013-09-07 01:43:00,
2013-09-06 21:48:00,71.7,60.2,29.98,West,277,0.0,1.0,67,0.00,,,0.00,Wunderground v.1.15,2013-09-07 01:48:00,
2013-09-06 21:53:00,71.7,60.2,29.98,West,277,0.0,2.0,67,0.00,,,0.00,Wunderground v.1.15,2013-09-07 01:53:00,
2013-09-06 21:58:00,71.9,60.3,29.97,West,277,0.0,3.0,67,0.00,,,0.00,Wunderground v.1.15,2013-09-07 01:58:00,
2013-09-06 22:03:00,71.8,60.2,29.97,West,277,0.0,0.0,67,0.00,,,0.00,Wunderground v.1.15,2013-09-07 02:03:00,
2013-09-06 22:08:00,71.8,60.2,29.97,West,277,0.0,2.0,67,0.00,,,0.00,Wunderground v.1.15,2013-09-07 02:08:00,
2013-09-06 22:13:00,71.8,60.2,29.97,West,277,0.0,0.0,67,0.00,,,0.00,Wunderground v.1.15,2013-09-07 02:13:00,
2013-09-06 22:18:00,71.8,60.2,29.98,West,277,0.0,0.0,67,0.00,,,0.00,Wunderground v.1.15,2013-09-07 02:18:00,
2013-09-06 22:23:00,71.8,60.2,29.98,West,277,0.0,1.0,67,0.00,,,0.00,Wunderground v.1.15,2013-09-07 02:23:00,
2013-09-06 22:28:00,71.8,60.2,29.98,West,277,0.0,1.0,67,0.00,,,0.00,Wunderground v.1.15,2013-09-07 02:28:00,
2013-09-06 22:33:00,71.7,60.2,29.98,West,277,0.0,0.0,67,0.00,,,0.00,Wunderground v.1.15,2013-09-07 02:33:00,
2013-09-06 22:38:00,71.6,60.1,29.99,West,277,0.0,1.0,67,0.00,,,0.00,Wunderground v.1.15,2013-09-07 02:38:00,
2013-09-06 22:43:00,71.5,60.0,29.99,West,277,0.0,0.0,67,0.00,,,0.00,Wunderground v.1.15,2013-09-07 02:43:00,
2013-09-06 22:48:00,71.4,59.9,30.00,NE,38,0.0,3.0,67,0.00,,,0.00,Wunderground v.1.15,2013-09-07 02:48:00,
2013-09-06 22:53:00,71.2,59.7,30.00,NE,38,0.0,2.0,67,0.00,,,0.00,Wunderground v.1.15,2013-09-07 02:53:00,
2013-09-06 22:58:00,71.0,59.9,30.01,NE,38,0.0,2.0,68,0.00,,,0.00,Wunderground v.1.15,2013-09-07 02:58:00,
2013-09-06 23:03:00,71.0,59.9,30.01,NE,38,0.0,1.0,68,0.00,,,0.00,Wunderground v.1.15,2013-09-07 03:03:00,
2013-09-06 23:08:00,71.0,59.9,30.01,NE,44,0.0,2.0,68,0.00,,,0.00,Wunderground v.1.15,2013-09-07 03:08:00,
2013-09-06 23:13:00,71.0,59.9,30.01,NE,44,0.0,1.0,68,0.00,,,0.00,Wunderground v.1.15,2013-09-07 03:13:00,
2013-09-06 23:18:00,70.9,59.8,30.01,NE,44,0.0,1.0,68,0.00,,,0.00,Wunderground v.1.15,2013-09-07 03:18:00,
2013-09-06 23:23:00,70.8,59.3,30.02,NE,44,0.0,1.0,67,0.00,,,0.00,Wunderground v.1.15,2013-09-07 03:23:00,
2013-09-06 23:28:00,70.8,59.3,30.02,NE,44,0.0,1.0,67,0.00,,,0.00,Wunderground v.1.15,2013-09-07 03:28:00,
2013-09-06 23:33:00,70.8,59.3,30.02,NE,44,0.0,2.0,67,0.00,,,0.00,Wunderground v.1.15,2013-09-07 03:33:00,
2013-09-06 23:38:00,70.7,59.2,30.02,NE,44,0.0,2.0,67,0.00,,,0.00,Wunderground v.1.15,2013-09-07 03:38:00,
2013-09-06 23:43:00,70.6,59.5,30.02,NE,44,0.0,0.0,68,0.00,,,0.00,Wunderground v.1.15,2013-09-07 03:43:00,
2013-09-06 23:48:00,70.7,59.2,30.02,NE,44,0.0,0.0,67,0.00,,,0.00,Wunderground v.1.15,2013-09-07 03:48:00,
2013-09-06 23:53:00,70.8,59.3,30.02,NE,44,0.0,0.0,67,0.00,,,0.00,Wunderground v.1.15,2013-09-07 03:53:00,
2013-09-06 23:58:00,70.7,59.2,30.02,NE,44,0.0,1.0,67,0.00,,,0.00,Wunderground v.1.15,2013-09-07 03:58:00,